Woensdrecht, Netherlands

2:26 PM CEST on October 18, 2017 (GMT +0200)
Woensdrecht Air Base

Weather History for EHWO - November, 2012

Change the Weather History Date:

Thursday, November 8, 2012

  Actual Average Record
Temperature  
Mean Temperature 50 °F -  
Max Temperature 51 °F 46 °F 64 °F (2015)
Min Temperature 48 °F 37 °F 29 °F (2016)
Degree Days  
Heating Degree Days 16    
Moisture  
Dew Point 46 °F    
Average Humidity 87    
Maximum Humidity 100    
Minimum Humidity 76    
Precipitation  
Precipitation 0.00 in - - ()
Sea Level Pressure  
Sea Level Pressure 30.07 in    
Wind  
Wind Speed 11 mph ()    
Max Wind Speed 15 mph    
Max Gust Speed -    
Visibility 6.0 miles    
Events Rain    
Averages and records for this station are not official NWS values.
T = Trace of Precipitation, MM = Missing Value Source: Averaged Metar Reports

Daily Weather History Graph

Daily Weather History Graph

Search for Another Location

Airport or City:

Trip Planner

Search our weather history database for the weather conditions in past years. The results will help you decide how hot, cold, wet, or windy it might be!

Date:

Astronomy

Nov. 08, 2012 Rise Set
Actual Time 7:48 AM CET 5:03 PM CET
Civil Twilight 7:12 AM CET 5:39 PM CET
Nautical Twilight 6:32 AM CET 6:19 PM CET
Astronomical Twilight 5:53 AM CET 6:58 PM CET
Moon 12:46 AM CET (11/8) 2:13 PM CET (11/8)
Length of Visible Light 10h 26m
Length of Day
9h 14m
Waning Crescent, 35% of the Moon is Illuminated
Nov 8
Waning Crescent
Nov 13
New
Nov 20
First Quarter
Nov 28
Full
Dec 6
Last Quarter

Hourly Weather History & Observations

Time (CET) Temp. Dew Point Humidity Pressure Visibility Wind Dir Wind Speed Gust Speed Precip Events Conditions
12:25 AM 50.0 °F 44.6 °F 82% 30.18 in 6.2 mi WSW 12.7 mph - N/A   Overcast
12:31 AM 50.0 °F 44.6 °F 82% 30.18 in 6.2 mi WSW 12.7 mph - N/A   Overcast
12:55 AM 50.0 °F 44.6 °F 82% 30.18 in 6.2 mi WSW 15.0 mph - N/A   Overcast
12:56 AM 50.0 °F 44.6 °F 82% 30.18 in 6.2 mi WSW 15.0 mph - N/A   Overcast
1:11 AM 50.0 °F 44.6 °F 82% 30.18 in 6.2 mi WSW 13.8 mph - N/A   Overcast
1:15 AM 50.0 °F 44.6 °F 82% 30.18 in 6.2 mi WSW 13.8 mph - N/A   Overcast
1:25 AM 50.0 °F 44.6 °F 82% 30.18 in 6.2 mi WSW 13.8 mph - N/A   Overcast
1:27 AM 50.0 °F 44.6 °F 82% 30.18 in 6.2 mi WSW 12.7 mph - N/A   Overcast
1:55 AM 50.0 °F 44.6 °F 82% 30.18 in 6.2 mi SW 12.7 mph - N/A   Overcast
2:25 AM 48.2 °F 44.6 °F 87% 30.15 in 6.2 mi SW 13.8 mph - N/A   Overcast
2:55 AM 48.2 °F 44.6 °F 87% 30.15 in 6.2 mi SW 13.8 mph - N/A   Overcast
3:25 AM 50.0 °F 42.8 °F 76% 30.15 in 6.2 mi SW 12.7 mph - N/A   Overcast
3:55 AM 48.2 °F 42.8 °F 82% 30.12 in 6.2 mi SW 13.8 mph - N/A   Overcast
4:25 AM 48.2 °F 42.8 °F 82% 30.12 in 6.2 mi SW 12.7 mph - N/A   Overcast
4:55 AM 48.2 °F 42.8 °F 82% 30.12 in 6.2 mi SW 12.7 mph - N/A   Overcast
5:25 AM 48.2 °F 42.8 °F 82% 30.09 in 6.2 mi SW 13.8 mph - N/A   Overcast
5:55 AM 48.2 °F 42.8 °F 82% 30.09 in 6.2 mi SW 12.7 mph - N/A   Overcast
6:25 AM 48.2 °F 42.8 °F 82% 30.09 in 6.2 mi SW 10.4 mph - N/A   Overcast
6:49 AM 48.2 °F 44.6 °F 87% 30.09 in 6.2 mi SW 9.2 mph - N/A   Overcast
6:55 AM 48.2 °F 44.6 °F 87% 30.09 in 6.2 mi SW 9.2 mph - N/A   Overcast
7:06 AM 48.2 °F 44.6 °F 87% 30.09 in 6.2 mi SW 10.4 mph - N/A   Overcast
7:25 AM 48.2 °F 44.6 °F 87% 30.09 in 6.2 mi SW 10.4 mph - N/A   Overcast
7:35 AM 48.2 °F 44.6 °F 87% 30.09 in 6.2 mi SW 9.2 mph - N/A   Overcast
7:39 AM 48.2 °F 44.6 °F 87% 30.09 in 6.2 mi SW 9.2 mph - N/A   Overcast
7:55 AM 48.2 °F 44.6 °F 87% 30.09 in 6.2 mi SW 9.2 mph - N/A   Overcast
8:25 AM 48.2 °F 44.6 °F 87% 30.09 in 6.2 mi SW 10.4 mph - N/A   Overcast
8:43 AM 48.2 °F 44.6 °F 87% 30.09 in 6.2 mi SW 11.5 mph - N/A   Overcast
8:44 AM 48.2 °F 44.6 °F 87% 30.09 in 6.2 mi SW 10.4 mph - N/A   Mostly Cloudy
8:51 AM 48.2 °F 44.6 °F 87% 30.09 in 6.2 mi SW 10.4 mph - N/A   Overcast
8:55 AM 48.2 °F 44.6 °F 87% 30.09 in 6.2 mi SW 11.5 mph - N/A   Overcast
9:25 AM 50.0 °F 44.6 °F 82% 30.06 in 6.2 mi SW 9.2 mph - N/A   Overcast
9:55 AM 50.0 °F 44.6 °F 82% 30.06 in 6.2 mi SW 10.4 mph - N/A   Overcast
9:57 AM 50.0 °F 44.6 °F 82% 30.06 in 6.2 mi SW 10.4 mph - N/A   Overcast
10:25 AM 50.0 °F 46.4 °F 87% 30.06 in 6.2 mi SW 9.2 mph - N/A   Overcast
10:49 AM 50.0 °F 46.4 °F 87% 30.06 in 6.2 mi SW 12.7 mph - N/A   Mostly Cloudy
10:55 AM 50.0 °F 46.4 °F 87% 30.06 in 6.2 mi SW 12.7 mph - N/A   Overcast
11:25 AM 51.8 °F 46.4 °F 82% 30.06 in 6.2 mi SW 12.7 mph - N/A   Overcast
11:55 AM 51.8 °F 46.4 °F 82% 30.06 in 6.2 mi SW 12.7 mph - N/A   Overcast
12:08 PM 50.0 °F 46.4 °F 87% 30.06 in 6.2 mi WSW 12.7 mph - N/A   Overcast
12:25 PM 51.8 °F 46.4 °F 82% 30.06 in 6.2 mi SW 11.5 mph - N/A   Overcast
12:47 PM 50.0 °F 46.4 °F 87% 30.06 in 3.7 mi WSW 11.5 mph - N/A Rain Rain
12:55 PM 50.0 °F 46.4 °F 87% 30.06 in 3.1 mi WSW 10.4 mph - N/A Rain Rain
1:01 PM 50.0 °F 46.4 °F 87% 30.06 in 3.1 mi SW 11.5 mph - N/A   Heavy Drizzle
1:11 PM 50.0 °F 46.4 °F 87% 30.04 in 6.2 mi WSW 11.5 mph - N/A   Overcast
1:25 PM 50.0 °F 48.2 °F 94% 30.04 in 6.2 mi WSW 12.7 mph - N/A   Overcast
1:30 PM 50.0 °F 48.2 °F 94% 30.04 in 6.2 mi WSW 11.5 mph - N/A   Overcast
1:37 PM 50.0 °F 46.4 °F 87% 30.04 in 6.2 mi SW 11.5 mph - N/A   Overcast
1:46 PM 51.8 °F 46.4 °F 82% 30.04 in 6.2 mi SW 13.8 mph - N/A   Overcast
1:55 PM 51.8 °F 46.4 °F 82% 30.04 in 6.2 mi SW 12.7 mph - N/A   Overcast
2:08 PM 51.8 °F 48.2 °F 88% 30.04 in 6.2 mi SW 11.5 mph - N/A   Overcast
2:09 PM 51.8 °F 48.2 °F 88% 30.04 in 6.2 mi SW 11.5 mph - N/A   Overcast
2:25 PM 51.8 °F 48.2 °F 88% 30.04 in 6.2 mi WSW 11.5 mph - N/A   Overcast
2:39 PM 51.8 °F 48.2 °F 88% 30.04 in 6.2 mi SW 11.5 mph - N/A   Overcast
2:44 PM 51.8 °F 48.2 °F 88% 30.04 in 6.2 mi WSW 12.7 mph - N/A   Overcast
2:48 PM 51.8 °F 48.2 °F 88% 30.04 in 6.2 mi WSW 12.7 mph - N/A   Overcast
2:55 PM 51.8 °F 48.2 °F 88% 30.04 in 6.2 mi SW 12.7 mph - N/A   Mostly Cloudy
2:59 PM 51.8 °F 48.2 °F 88% 30.04 in 6.2 mi SW 11.5 mph - N/A   Mostly Cloudy
3:03 PM 51.8 °F 48.2 °F 88% 30.04 in 6.2 mi WSW 11.5 mph - N/A   Overcast
3:08 PM 51.8 °F 48.2 °F 88% 30.04 in 4.3 mi SW 10.4 mph - N/A   Overcast
3:25 PM 50.0 °F 48.2 °F 94% 30.04 in 6.2 mi WSW 10.4 mph - N/A   Drizzle
3:36 PM 50.0 °F 48.2 °F 94% 30.04 in 6.2 mi WSW 10.4 mph - N/A   Overcast
3:46 PM 50.0 °F 48.2 °F 94% 30.04 in 6.2 mi West 10.4 mph - N/A   Mostly Cloudy
3:55 PM 50.0 °F 48.2 °F 94% 30.04 in 6.2 mi West 10.4 mph - N/A   Overcast
4:04 PM 50.0 °F 48.2 °F 94% 30.04 in 6.2 mi West 10.4 mph - N/A   Mostly Cloudy
4:09 PM 50.0 °F 48.2 °F 94% 30.04 in 6.2 mi West 10.4 mph - N/A   Mostly Cloudy
4:19 PM 50.0 °F 48.2 °F 94% 30.04 in 6.2 mi West 10.4 mph - N/A   Overcast
4:25 PM 50.0 °F 46.4 °F 87% 30.04 in 6.2 mi West 12.7 mph - N/A   Mostly Cloudy
4:29 PM 50.0 °F 46.4 °F 87% 30.04 in 6.2 mi West 12.7 mph - N/A   Overcast
4:55 PM 50.0 °F 46.4 °F 87% 30.04 in 6.2 mi West 8.1 mph - N/A   Mostly Cloudy
5:25 PM 50.0 °F 46.4 °F 87% 30.04 in 6.2 mi West 9.2 mph - N/A   Overcast
5:55 PM 50.0 °F 46.4 °F 87% 30.04 in 6.2 mi WSW 9.2 mph - N/A   Overcast
6:25 PM 50.0 °F 46.4 °F 87% 30.04 in 6.2 mi West 8.1 mph - N/A   Overcast
6:55 PM 50.0 °F 46.4 °F 87% 30.04 in 6.2 mi WSW 8.1 mph - N/A   Overcast
7:25 PM 50.0 °F 46.4 °F 87% 30.04 in 6.2 mi WSW 9.2 mph - N/A   Overcast
7:55 PM 50.0 °F 46.4 °F 87% 30.04 in 6.2 mi WSW 8.1 mph - N/A   Overcast
8:25 PM 50.0 °F 46.4 °F 87% 30.04 in 6.2 mi SW 5.8 mph - N/A   Overcast
8:55 PM 50.0 °F 46.4 °F 87% 30.04 in 6.2 mi SSW 6.9 mph - N/A   Overcast
9:25 PM 50.0 °F 46.4 °F 87% 30.04 in 6.2 mi SW 6.9 mph - N/A   Overcast
9:55 PM 50.0 °F 46.4 °F 87% 30.04 in 6.2 mi SW 6.9 mph - N/A   Overcast
10:25 PM 50.0 °F 46.4 °F 87% 30.04 in 6.2 mi SW 8.1 mph - N/A   Overcast
10:55 PM 50.0 °F 46.4 °F 87% 30.04 in 6.2 mi SW 8.1 mph - N/A   Overcast
11:25 PM 50.0 °F 48.2 °F 94% 30.04 in 5.6 mi SW 6.9 mph - N/A   Overcast
11:32 PM 50.0 °F 48.2 °F 94% 30.04 in 4.3 mi SW 8.1 mph - N/A   Overcast
11:38 PM 50.0 °F 48.2 °F 94% 30.04 in 5.0 mi SW 9.2 mph - N/A   Overcast
11:39 PM 50.0 °F 48.2 °F 94% 30.04 in 4.3 mi SW 8.1 mph - N/A   Overcast
11:49 PM 50.0 °F 48.2 °F 94% 30.04 in 5.0 mi SW 8.1 mph - N/A   Overcast
11:55 PM 48.2 °F 48.2 °F 100% 30.04 in 5.0 mi SW 6.9 mph - N/A   Overcast